| time (UTC) | temp C | wind direction | speed KPH | gust KPH | rain 1hr cm | rain 24hr cm | rain mn cm | humidity % | barometer mb |
| 20260506002018 | 10 | 63 | 8.0 | 17.7 | 0.00 | 0.00 | 0.00 | 84 | 1011.1 |
| 20260506001518 | 10 | 106 | 8.0 | 19.3 | 0.00 | 0.00 | 0.00 | 84 | 1011.0 |
| 20260506001012 | 10 | 18 | 8.0 | 19.3 | 0.00 | 0.00 | 0.00 | 83 | 1011.1 |
| 20260506000012 | 10 | 53 | 8.0 | 27.4 | 0.00 | 0.00 | 0.00 | 83 | 1011.2 |
| 20260505235012 | 10 | 78 | 6.4 | 19.3 | 0.00 | 0.00 | 0.00 | 83 | 1011.1 |
| 20260505234512 | 10 | 61 | 6.4 | 17.7 | 0.00 | 0.00 | 0.00 | 84 | 1011.2 |
| 20260505234007 | 10 | 81 | 9.7 | 19.3 | 0.00 | 0.00 | 0.00 | 84 | 1011.2 |
| 20260505233506 | 10 | 42 | 8.0 | 19.3 | 0.00 | 0.00 | 0.00 | 83 | 1011.2 |
| 20260505233006 | 10 | 79 | 8.0 | 19.3 | 0.00 | 0.00 | 0.00 | 83 | 1011.1 |
| 20260505232506 | 10 | 327 | 8.0 | 19.3 | 0.00 | 0.00 | 0.00 | 84 | 1011.1 |
| 20260505232006 | 10 | 84 | 8.0 | 20.9 | 0.00 | 0.00 | 0.00 | 84 | 1011.2 |
| 20260505231506 | 11 | 80 | 8.0 | 20.9 | 0.00 | 0.00 | 0.00 | 85 | 1011.1 |
| 20260505231000 | 11 | 40 | 8.0 | 19.3 | 0.00 | 0.00 | 0.00 | 85 | 1011.1 |
| 20260505230500 | 11 | 72 | 9.7 | 19.3 | 0.00 | 0.00 | 0.00 | 85 | 1011.1 |
| 20260505230001 | 11 | 69 | 8.0 | 19.3 | 0.00 | 0.00 | 0.00 | 86 | 1011.2 |
| 20260505225500 | 11 | 64 | 8.0 | 19.3 | 0.00 | 0.00 | 0.00 | 86 | 1011.2 |
| 20260505225000 | 11 | 66 | 8.0 | 19.3 | 0.00 | 0.00 | 0.00 | 87 | 1011.2 |
| 20260505223955 | 10 | 60 | 11.3 | 24.1 | 0.00 | 0.00 | 0.00 | 86 | 1011.3 |
| 20260505222953 | 10 | 40 | 11.3 | 22.5 | 0.00 | 0.00 | 0.00 | 86 | 1011.2 |
| 20260505222454 | 10 | 8 | 11.3 | 24.1 | 0.00 | 0.00 | 0.00 | 86 | 1011.2 |
| 20260505221954 | 10 | 49 | 11.3 | 24.1 | 0.00 | 0.00 | 0.00 | 86 | 1011.3 |
| 20260505221454 | 10 | 49 | 11.3 | 22.5 | 0.00 | 0.00 | 0.00 | 86 | 1011.2 |
| 20260505220451 | 11 | 65 | 11.3 | 22.5 | 0.00 | 0.00 | 0.00 | 87 | 1011.3 |
| 20260505215952 | 11 | 39 | 11.3 | 24.1 | 0.00 | 0.00 | 0.00 | 87 | 1011.3 |
| 20260505215452 | 11 | 55 | 12.9 | 25.7 | 0.00 | 0.00 | 0.00 | 86 | 1011.2 |
| 20260505214452 | 11 | 75 | 9.7 | 19.3 | 0.00 | 0.00 | 0.00 | 84 | 1011.2 |
| 20260505213446 | 11 | 67 | 9.7 | 19.3 | 0.00 | 0.00 | 0.00 | 82 | 1011.2 |
| 20260505212946 | 11 | 68 | 9.7 | 19.3 | 0.00 | 0.00 | 0.00 | 80 | 1011.2 |
| 20260505211446 | 11 | 37 | 11.3 | 22.5 | 0.00 | 0.00 | 0.00 | 76 | 1011.3 |
| 20260505210946 | 10 | 49 | 11.3 | 22.5 | 0.00 | 0.00 | 0.00 | 77 | 1011.3 |
| 20260505210439 | 10 | 49 | 9.7 | 22.5 | 0.00 | 0.00 | 0.00 | 78 | 1011.3 |
| 20260505205441 | 10 | 58 | 9.7 | 17.7 | 0.00 | 0.00 | 0.00 | 80 | 1011.2 |
| 20260505204940 | 10 | 74 | 9.7 | 12.9 | 0.00 | 0.00 | 0.00 | 82 | 1011.2 |
| 20260505203528 | 10 | 77 | 9.7 | 19.3 | 0.00 | 0.00 | 0.00 | 83 | 1011.2 |
| 20260505202025 | 10 | 56 | 8.0 | 14.5 | 0.00 | 0.00 | 0.00 | 85 | 1011.1 |
| 20260505201525 | 10 | 56 | 8.0 | 14.5 | 0.00 | 0.00 | 0.00 | 85 | 1011.0 |
| 20260505201024 | 10 | 59 | 8.0 | 14.5 | 0.00 | 0.00 | 0.00 | 85 | 1011.0 |
| 20260505200524 | 10 | 46 | 6.4 | 16.1 | 0.00 | 0.00 | 0.00 | 85 | 1010.9 |
| 20260505200023 | 10 | 49 | 8.0 | 16.1 | 0.00 | 0.00 | 0.00 | 85 | 1010.9 |
| 20260505195522 | 10 | 47 | 8.0 | 14.5 | 0.00 | 0.00 | 0.00 | 84 | 1010.9 |
| 20260505195017 | 10 | 59 | 8.0 | 14.5 | 0.00 | 0.00 | 0.00 | 84 | 1010.8 |
| 20260505194516 | 10 | 74 | 6.4 | 14.5 | 0.00 | 0.00 | 0.00 | 84 | 1010.6 |
| 20260505194017 | 10 | 346 | 8.0 | 16.1 | 0.00 | 0.00 | 0.00 | 84 | 1010.6 |
| 20260505193517 | 11 | 72 | 8.0 | 17.7 | 0.00 | 0.00 | 0.00 | 84 | 1010.6 |
| 20260505193017 | 11 | 69 | 8.0 | 17.7 | 0.00 | 0.00 | 0.00 | 84 | 1010.7 |
| 20260505192517 | 11 | 62 | 9.7 | 16.1 | 0.00 | 0.00 | 0.00 | 83 | 1010.6 |
| 20260505191514 | 11 | 48 | 8.0 | 17.7 | 0.00 | 0.00 | 0.00 | 82 | 1010.5 |
| 20260505191010 | 11 | 56 | 8.0 | 14.5 | 0.00 | 0.00 | 0.00 | 83 | 1010.5 |
| 20260505190508 | 11 | 51 | 8.0 | 16.1 | 0.00 | 0.00 | 0.00 | 82 | 1010.4 |
| 20260505190002 | 11 | 57 | 9.7 | 19.3 | 0.00 | 0.00 | 0.00 | 81 | 1010.4 |
| 20260505185500 | 11 | 94 | 9.7 | 17.7 | 0.00 | 0.00 | 0.00 | 80 | 1010.4 |
| 20260505184954 | 11 | 41 | 8.0 | 16.1 | 0.00 | 0.00 | 0.00 | 81 | 1010.4 |
| 20260505184447 | 11 | 43 | 8.0 | 16.1 | 0.00 | 0.00 | 0.00 | 80 | 1010.4 |
| 20260505183944 | 11 | 34 | 8.0 | 16.1 | 0.00 | 0.00 | 0.00 | 79 | 1010.4 |
| 20260505183440 | 11 | 58 | 8.0 | 14.5 | 0.00 | 0.00 | 0.00 | 79 | 1010.4 |
| 20260505182439 | 12 | 49 | 9.7 | 17.7 | 0.00 | 0.00 | 0.00 | 78 | 1010.4 |
| 20260505181439 | 12 | 49 | 6.4 | 12.9 | 0.00 | 0.00 | 0.00 | 77 | 1010.3 |
| 20260505180938 | 12 | 67 | 6.4 | 12.9 | 0.00 | 0.00 | 0.00 | 77 | 1010.3 |
| 20260505175940 | 12 | 66 | 6.4 | 12.9 | 0.00 | 0.00 | 0.00 | 77 | 1010.4 |
| 20260505175440 | 12 | 60 | 4.8 | 9.7 | 0.00 | 0.00 | 0.00 | 78 | 1010.3 |
| 20260505173934 | 12 | 63 | 8.0 | 14.5 | 0.00 | 0.00 | 0.00 | 78 | 1010.3 |
| 20260505173434 | 12 | 47 | 8.0 | 14.5 | 0.00 | 0.00 | 0.00 | 78 | 1010.3 |
| 20260505172935 | 12 | 46 | 6.4 | 16.1 | 0.00 | 0.00 | 0.00 | 78 | 1010.3 |
| 20260505172436 | 12 | 59 | 8.0 | 16.1 | 0.00 | 0.00 | 0.00 | 78 | 1010.3 |
| 20260505171931 | 12 | 94 | 8.0 | 16.1 | 0.00 | 0.00 | 0.00 | 78 | 1010.2 |
| 20260505170931 | 12 | 41 | 8.0 | 16.1 | 0.00 | 0.00 | 0.00 | 77 | 1010.3 |
| 20260505170431 | 12 | 60 | 8.0 | 14.5 | 0.00 | 0.00 | 0.00 | 77 | 1010.3 |
| 20260505165931 | 12 | 51 | 8.0 | 16.1 | 0.00 | 0.00 | 0.00 | 75 | 1010.3 |
| 20260505165432 | 12 | 41 | 8.0 | 16.1 | 0.00 | 0.00 | 0.00 | 76 | 1010.3 |
| 20260505164926 | 12 | 35 | 8.0 | 16.1 | 0.00 | 0.00 | 0.00 | 75 | 1010.4 |
| 20260505164427 | 12 | 95 | 6.4 | 12.9 | 0.00 | 0.00 | 0.00 | 77 | 1010.4 |
| 20260505163920 | 12 | 60 | 8.0 | 14.5 | 0.00 | 0.00 | 0.00 | 77 | 1010.3 |
| 20260505163420 | 12 | 105 | 8.0 | 16.1 | 0.00 | 0.00 | 0.00 | 77 | 1010.4 |
| 20260505162918 | 12 | 55 | 9.7 | 16.1 | 0.00 | 0.00 | 0.00 | 77 | 1010.4 |
| 20260505161914 | 12 | 57 | 6.4 | 17.7 | 0.00 | 0.00 | 0.00 | 75 | 1010.4 |
| 20260505161415 | 12 | 62 | 8.0 | 16.1 | 0.00 | 0.00 | 0.00 | 77 | 1010.3 |
| 20260505160912 | 12 | 75 | 9.7 | 16.1 | 0.00 | 0.00 | 0.00 | 77 | 1010.3 |
| 20260505151459 | 11 | 59 | 9.7 | 16.1 | 0.00 | 0.00 | 0.00 | 82 | 1010.7 |
| 20260505150958 | 11 | 57 | 8.0 | 16.1 | 0.00 | 0.00 | 0.00 | 82 | 1010.6 |
| 20260505150458 | 11 | 24 | 9.7 | 19.3 | 0.00 | 0.00 | 0.00 | 84 | 1010.7 |
| 20260505140448 | 12 | 40 | 11.3 | 20.9 | 0.00 | 0.00 | 0.00 | 83 | 1011.0 |
| 20260505124935 | 11 | 51 | 9.7 | 22.5 | 0.00 | 0.00 | 0.00 | 82 | 1011.2 |
| 20260505124435 | 11 | 61 | 9.7 | 22.5 | 0.00 | 0.00 | 0.00 | 82 | 1011.2 |
| 20260505122930 | 11 | 1 | 9.7 | 19.3 | 0.00 | 0.00 | 0.00 | 82 | 1011.2 |
| 20260505122430 | 11 | 77 | 9.7 | 20.9 | 0.00 | 0.00 | 0.00 | 82 | 1011.2 |
| 20260505121929 | 11 | 59 | 9.7 | 20.9 | 0.00 | 0.00 | 0.00 | 81 | 1011.2 |
| 20260505121443 | 11 | 51 | 9.7 | 16.1 | 0.00 | 0.00 | 0.00 | 82 | 1011.1 |
| 20260505120424 | 11 | 33 | 9.7 | 20.9 | 0.00 | 0.00 | 0.00 | 82 | 1011.3 |
| 20260505115425 | 11 | 137 | 9.7 | 24.1 | 0.00 | 0.00 | 0.00 | 79 | 1011.2 |
| 20260505114923 | 12 | 63 | 9.7 | 17.7 | 0.00 | 0.00 | 0.00 | 83 | 1011.3 |
| 20260505114424 | 11 | 79 | 9.7 | 17.7 | 0.00 | 0.00 | 0.00 | 82 | 1011.3 |
| 20260505112916 | 11 | 71 | 9.7 | 19.3 | 0.00 | 0.00 | 0.00 | 82 | 1011.4 |
| 20260505112430 | 11 | 63 | 9.7 | 17.7 | 0.00 | 0.00 | 0.00 | 82 | 1011.3 |
| 20260505111430 | 11 | 50 | 9.7 | 19.3 | 0.00 | 0.00 | 0.00 | 82 | 1011.4 |
| 20260505102159 | 11 | 65 | 8.0 | 17.7 | 0.00 | 0.00 | 0.00 | 81 | 1011.7 |
| 20260505101658 | 11 | 358 | 8.0 | 16.1 | 0.00 | 0.00 | 0.00 | 81 | 1011.7 |
| 20260505101159 | 11 | 3 | 9.7 | 17.7 | 0.00 | 0.00 | 0.00 | 81 | 1011.8 |
| 20260505100658 | 11 | 65 | 9.7 | 19.3 | 0.00 | 0.00 | 0.00 | 80 | 1011.8 |
| 20260505100156 | 11 | 54 | 8.0 | 19.3 | 0.00 | 0.00 | 0.00 | 82 | 1011.8 |
| 20260505095656 | 11 | 48 | 8.0 | 20.9 | 0.00 | 0.00 | 0.00 | 81 | 1011.8 |
| 20260505094656 | 11 | 67 | 11.3 | 19.3 | 0.00 | 0.00 | 0.00 | 81 | 1011.8 |
| 20260505093157 | 11 | 359 | 8.0 | 14.5 | 0.00 | 0.00 | 0.00 | 82 | 1012.0 |
| 20260505092651 | 11 | 43 | 8.0 | 17.7 | 0.00 | 0.00 | 0.00 | 82 | 1011.8 |
| 20260505092152 | 11 | 74 | 8.0 | 17.7 | 0.00 | 0.00 | 0.00 | 82 | 1011.9 |
| 20260505091651 | 11 | 76 | 8.0 | 17.7 | 0.00 | 0.00 | 0.00 | 82 | 1011.8 |
| 20260505090652 | 11 | 76 | 6.4 | 16.1 | 0.00 | 0.00 | 0.00 | 83 | 1011.8 |
| 20260505090152 | 11 | 44 | 6.4 | 17.7 | 0.00 | 0.00 | 0.00 | 82 | 1011.8 |
| 20260505085152 | 11 | 48 | 8.0 | 16.1 | 0.00 | 0.00 | 0.00 | 83 | 1011.8 |
| 20260505084652 | 11 | 38 | 8.0 | 17.7 | 0.00 | 0.00 | 0.00 | 84 | 1011.8 |
| 20260505082648 | 11 | 53 | 6.4 | 14.5 | 0.00 | 0.00 | 0.00 | 84 | 1011.8 |
| 20260505082148 | 11 | 64 | 6.4 | 16.1 | 0.00 | 0.00 | 0.00 | 83 | 1011.8 |
| 20260505081647 | 10 | 28 | 6.4 | 16.1 | 0.00 | 0.00 | 0.00 | 83 | 1011.8 |
| 20260505081149 | 10 | 22 | 8.0 | 16.1 | 0.00 | 0.00 | 0.00 | 83 | 1011.8 |
| 20260505080649 | 10 | 41 | 8.0 | 17.7 | 0.00 | 0.00 | 0.00 | 83 | 1011.8 |
| 20260505080149 | 11 | 111 | 6.4 | 17.7 | 0.00 | 0.00 | 0.00 | 83 | 1011.7 |
| 20260505075649 | 11 | 42 | 6.4 | 14.5 | 0.00 | 0.00 | 0.00 | 83 | 1011.7 |
| 20260505075144 | 11 | 70 | 6.4 | 16.1 | 0.00 | 0.00 | 0.00 | 84 | 1011.7 |
| 20260505074644 | 10 | 75 | 6.4 | 16.1 | 0.00 | 0.00 | 0.00 | 85 | 1011.8 |
| 20260505074143 | 10 | 68 | 6.4 | 12.9 | 0.00 | 0.00 | 0.00 | 84 | 1011.7 |
| 20260505073644 | 10 | 66 | 6.4 | 12.9 | 0.00 | 0.00 | 0.00 | 84 | 1011.7 |
| 20260505073145 | 10 | 77 | 6.4 | 12.9 | 0.00 | 0.00 | 0.00 | 84 | 1011.9 |
| 20260505072644 | 10 | 35 | 6.4 | 12.9 | 0.00 | 0.00 | 0.00 | 85 | 1011.8 |
| 20260505072139 | 10 | 46 | 4.8 | 11.3 | 0.00 | 0.00 | 0.00 | 85 | 1011.9 |
| 20260505071140 | 10 | 82 | 8.0 | 12.9 | 0.00 | 0.00 | 0.00 | 84 | 1011.9 |
| 20260505070640 | 10 | 60 | 6.4 | 12.9 | 0.00 | 0.00 | 0.00 | 84 | 1011.8 |
| 20260505070141 | 10 | 59 | 6.4 | 12.9 | 0.00 | 0.00 | 0.00 | 84 | 1011.8 |
| 20260505065138 | 10 | 345 | 6.4 | 14.5 | 0.00 | 0.00 | 0.00 | 84 | 1011.7 |
| 20260505064138 | 10 | 46 | 6.4 | 16.1 | 0.00 | 0.00 | 0.00 | 85 | 1011.7 |
| 20260505063137 | 10 | 57 | 6.4 | 16.1 | 0.00 | 0.00 | 0.00 | 85 | 1011.7 |
| 20260505062134 | 10 | 75 | 4.8 | 12.9 | 0.00 | 0.00 | 0.00 | 85 | 1011.8 |
| 20260505061132 | 10 | 46 | 4.8 | 12.9 | 0.00 | 0.00 | 0.00 | 85 | 1011.9 |
| 20260505060632 | 10 | 61 | 4.8 | 12.9 | 0.00 | 0.00 | 0.00 | 85 | 1012.0 |
| 20260505055623 | 10 | 72 | 4.8 | 9.7 | 0.00 | 0.00 | 0.00 | 86 | 1012.1 |
| 20260505055122 | 10 | 60 | 4.8 | 9.7 | 0.00 | 0.00 | 0.00 | 86 | 1012.0 |
| 20260505054621 | 10 | 58 | 3.2 | 9.7 | 0.00 | 0.00 | 0.00 | 86 | 1012.0 |
| 20260505054119 | 10 | 67 | 4.8 | 9.7 | 0.00 | 0.00 | 0.00 | 87 | 1012.0 |
| 20260505053621 | 10 | 68 | 4.8 | 9.7 | 0.00 | 0.00 | 0.00 | 87 | 1012.0 |
| 20260505053121 | 10 | 63 | 3.2 | 9.7 | 0.00 | 0.00 | 0.00 | 87 | 1012.0 |
| 20260505052620 | 10 | 62 | 4.8 | 9.7 | 0.00 | 0.00 | 0.00 | 88 | 1012.0 |
| 20260505052114 | 9 | 27 | 4.8 | 12.9 | 0.00 | 0.00 | 0.00 | 88 | 1012.0 |
| 20260505051613 | 9 | 50 | 3.2 | 12.9 | 0.00 | 0.00 | 0.00 | 89 | 1012.0 |
| 20260505051113 | 9 | 74 | 4.8 | 11.3 | 0.00 | 0.00 | 0.00 | 89 | 1012.0 |
| 20260505050613 | 9 | 30 | 3.2 | 11.3 | 0.00 | 0.00 | 0.00 | 89 | 1012.0 |
| 20260505041610 | 9 | 72 | 4.8 | 9.7 | 0.00 | 0.00 | 0.00 | 89 | 1012.0 |
| 20260505040606 | 9 | 60 | 4.8 | 11.3 | 0.00 | 0.00 | 0.00 | 89 | 1012.1 |
| 20260505040106 | 9 | 53 | 4.8 | 11.3 | 0.00 | 0.00 | 0.00 | 89 | 1012.1 |
| 20260505035105 | 9 | 51 | 3.2 | 8.0 | 0.00 | 0.00 | 0.00 | 90 | 1012.1 |
| 20260505034604 | 9 | 58 | 4.8 | 8.0 | 0.00 | 0.00 | 0.00 | 89 | 1012.0 |
| 20260505034057 | 9 | 66 | 4.8 | 9.7 | 0.00 | 0.00 | 0.00 | 89 | 1012.1 |
| 20260505033558 | 9 | 53 | 4.8 | 11.3 | 0.00 | 0.00 | 0.00 | 89 | 1012.1 |
| 20260505033058 | 9 | 86 | 4.8 | 11.3 | 0.00 | 0.00 | 0.00 | 89 | 1012.1 |
| 20260505032558 | 9 | 62 | 3.2 | 3.2 | 0.00 | 0.00 | 0.00 | 90 | 1012.1 |
| 20260505030854 | 10 | 332 | 4.8 | 12.9 | 0.00 | 0.00 | 0.00 | 89 | 1012.4 |
| 20260505030354 | 10 | 71 | 6.4 | 12.9 | 0.00 | 0.00 | 0.00 | 89 | 1012.3 |
| 20260505025854 | 10 | 56 | 4.8 | 11.3 | 0.00 | 0.00 | 0.00 | 89 | 1012.4 |
| 20260505025348 | 10 | 86 | 4.8 | 12.9 | 0.00 | 0.00 | 0.00 | 89 | 1012.4 |
| 20260505024848 | 10 | 68 | 4.8 | 12.9 | 0.00 | 0.00 | 0.00 | 89 | 1012.5 |
| 20260505024348 | 10 | 19 | 6.4 | 11.3 | 0.00 | 0.00 | 0.00 | 89 | 1012.6 |
| 20260505023848 | 10 | 70 | 6.4 | 12.9 | 0.00 | 0.00 | 0.00 | 89 | 1012.6 |
| 20260505023348 | 10 | 44 | 4.8 | 12.9 | 0.00 | 0.00 | 0.00 | 89 | 1012.6 |
| 20260505022848 | 10 | 53 | 3.2 | 9.7 | 0.00 | 0.00 | 0.00 | 89 | 1012.6 |
| 20260505022341 | 10 | 51 | 3.2 | 8.0 | 0.00 | 0.00 | 0.00 | 89 | 1012.5 |
| 20260505021841 | 10 | 68 | 4.8 | 11.3 | 0.00 | 0.00 | 0.00 | 89 | 1012.6 |
| 20260505021341 | 10 | 60 | 4.8 | 11.3 | 0.00 | 0.00 | 0.00 | 89 | 1012.6 |
| 20260505020843 | 10 | 37 | 4.8 | 11.3 | 0.00 | 0.00 | 0.00 | 89 | 1012.6 |
| 20260505020342 | 10 | 62 | 4.8 | 16.1 | 0.00 | 0.00 | 0.00 | 89 | 1012.6 |
| 20260505015842 | 10 | 44 | 4.8 | 16.1 | 0.00 | 0.00 | 0.00 | 89 | 1012.6 |
| 20260505015338 | 10 | 77 | 4.8 | 12.9 | 0.00 | 0.00 | 0.00 | 89 | 1012.6 |
| 20260505014839 | 10 | 61 | 4.8 | 12.9 | 0.00 | 0.00 | 0.00 | 89 | 1012.6 |
| 20260505013836 | 10 | 11 | 4.8 | 12.9 | 0.00 | 0.00 | 0.00 | 90 | 1012.7 |
| 20260505012836 | 10 | 56 | 4.8 | 12.9 | 0.00 | 0.00 | 0.00 | 90 | 1012.7 |
| 20260505011830 | 10 | 58 | 4.8 | 8.0 | 0.00 | 0.00 | 0.00 | 90 | 1012.8 |
| 20260505011331 | 10 | 323 | 6.4 | 11.3 | 0.00 | 0.00 | 0.00 | 90 | 1012.9 |
| 20260505010831 | 10 | 53 | 6.4 | 11.3 | 0.00 | 0.00 | 0.00 | 90 | 1013.0 |
| 20260505010330 | 10 | 54 | 4.8 | 14.5 | 0.00 | 0.00 | 0.00 | 89 | 1013.0 |
| 20260505005323 | 10 | 49 | 6.4 | 14.5 | 0.00 | 0.00 | 0.00 | 89 | 1013.1 |
| 20260505004824 | 10 | 79 | 6.4 | 14.5 | 0.00 | 0.00 | 0.00 | 89 | 1013.1 |
| 20260505003824 | 10 | 69 | 9.7 | 14.5 | 0.00 | 0.00 | 0.00 | 90 | 1013.1 |
| 20260505002824 | 11 | 51 | 6.4 | 12.9 | 0.00 | 0.00 | 0.00 | 90 | 1013.0 |
| 20260505002320 | 11 | 65 | 6.4 | 14.5 | 0.00 | 0.00 | 0.00 | 90 | 1013.2 |